Wetbulb
59.71 59.43 59.34 59.38 59.34 58.90 58.18 57.03 56.18 56.01 56.35 57.42 57.35 56.70 55.73 55.15 54.64 54.51 54.41 54.43 54.06 53.89 53.97 54.47 54.62 54.57 54.55 54.45 54.71 55.14 55.76 56.33 56.55 56.60 56.51 56.19 55.88 55.71 55.35 55.05 54.55 54.33 54.28 54.42 54.51 54.64 54.83 54.92 55.42 55.92 56.14 55.91 56.00 56.23 56.63 57.36 57.90 58.30 58.53 58.57 58.50 58.85 59.33 59.79 60.20 60.66 61.16 61.24 61.61
59.28 58.82 58.64 58.68 58.42 57.91 57.06 55.54 54.52 54.37 54.99 56.16 56.30 55.71 54.88 54.54 54.08 53.70 53.45 53.32 53.80 54.16 54.37 54.57 54.20 54.15 53.99 53.52 53.61 53.98 54.40 55.06 55.43 55.61 55.48 55.21 54.90 54.72 54.59 54.51 54.11 53.75 53.52 53.29 53.20 53.25 53.30 53.07 53.66 54.15 54.38 54.15 54.20 54.24 54.38 54.38 55.14 55.81 56.29 56.50 56.83 57.25 57.82 58.51 59.13 59.83 60.55 60.90 61.18
59.06 58.42 57.97 57.51 57.06 56.91 56.35 54.80 53.52 53.38 54.15 55.33 55.37 55.18 54.80 54.57 54.43 54.31 54.28 54.16 54.31 54.54 54.87 55.01 54.60 54.41 54.13 53.62 53.32 53.44 53.88 54.34 54.73 54.80 54.63 54.23 53.87 53.74 53.65 53.70 53.43 53.16 52.80 52.35 52.26 52.21 52.26 51.99 52.53 53.25 53.70 53.34 52.89 52.80 52.35 51.04 51.35 51.85 52.25 52.55 52.45 52.54 52.99 54.16 55.61 56.53 57.11 57.90 59.01
58.96 58.19 57.38 56.38 55.91 55.53 54.98 54.08 53.05 53.45 54.45 55.29 54.98 54.94 54.98 54.85 55.03 54.94 54.87 54.52 54.57 55.12 55.80 56.02 55.84 55.52 55.06 54.46 53.84 53.77 53.98 54.30 54.37 54.21 53.91 53.60 53.15 52.79 52.70 52.88 53.01 52.66 52.07 51.58 51.62 51.66 51.75 51.72 52.22 52.48 52.39 51.58 51.08 50.82 50.32 49.37 48.79 48.83 48.88 48.51 48.15 48.33 48.96 49.82 49.73 50.05 50.63 51.62 53.20
59.04 58.19 56.92 55.52 55.30 54.55 53.81 53.29 53.25 53.88 54.71 55.23 55.45 55.18 54.87 54.55 54.65 54.57 54.53 54.95 55.45 55.85 56.17 56.40 56.71 56.53 55.94 54.97 54.15 53.82 53.95 54.48 54.56 54.22 53.55 52.75 52.26 52.03 52.02 52.33 52.29 51.84 51.31 50.90 50.94 50.85 50.81 50.68 51.45 51.31 50.68 49.60 49.46 49.06 48.47 47.25 46.75 46.53 46.53 46.25 46.53 46.71 47.07 47.34 47.07 47.25 47.61 48.29 48.56
58.00 57.13 56.18 55.28 55.66 55.07 53.83 52.59 53.03 53.79 54.64 55.10 55.01 54.70 54.39 54.17 54.03 54.08 54.27 54.45 54.63 54.82 55.13 55.90 56.63 56.80 56.44 55.12 53.89 53.39 53.52 53.70 53.52 53.34 53.16 52.44 51.85 51.62 51.44 51.26 50.85 50.40 50.00 49.64 49.59 49.41 49.41 49.69 50.37 50.23 49.60 49.01 48.43 47.75 46.98 46.12 46.16 45.94 45.75 45.85 45.85 45.80 45.80 45.98 45.80 45.85 46.21 46.53 46.75
56.06 55.15 54.41 53.77 54.29 53.84 52.70 51.35 52.35 53.38 54.26 54.61 54.14 53.93 53.76 53.53 53.35 52.95 52.59 52.59 53.04 53.54 54.00 54.49 54.95 55.12 54.94 54.12 53.40 52.81 52.54 52.31 51.86 51.73 51.63 51.68 51.18 51.08 50.90 50.18 49.77 49.50 49.19 48.87 48.74 48.78 48.78 48.92 49.33 49.28 49.28 49.42 48.74 47.57 46.39 45.71 45.94 45.85 45.75 45.94 45.71 45.75 45.85 45.53 45.08 45.39 45.76 45.71 45.58
54.63 53.90 53.02 52.25 52.05 51.65 51.28 50.88 51.73 52.56 53.28 53.87 53.70 53.37 53.20 53.38 53.19 52.70 52.12 51.77 51.82 51.87 52.06 52.39 52.57 52.89 53.11 52.89 52.44 51.99 51.63 51.32 50.78 50.73 50.91 50.91 50.36 49.91 49.46 49.14 49.14 48.74 48.24 47.84 47.88 47.84 47.70 47.61 47.93 47.79 47.61 47.84 47.43 46.39 45.30 44.90 45.03 45.44 45.89 46.12 45.75 45.71 45.85 45.85 45.21 45.44 45.71 45.44 45.17
54.50 53.68 52.72 52.08 51.44 51.12 50.80 50.65 50.72 50.98 51.20 51.32 51.76 51.95 52.06 52.15 51.84 51.66 51.35 50.97 50.71 50.86 51.01 50.98 50.88 51.05 51.15 51.07 50.44 49.95 49.55 49.28 48.92 48.65 48.51 48.60 48.19 47.75 47.39 47.25 47.11 46.80 46.26 45.94 45.80 45.76 45.71 46.07 45.89 45.48 45.21 45.57 45.39 45.03 44.67 44.26 44.94 45.53 46.12 46.71 46.57 46.25 45.71 45.21 45.71 46.30 46.98 47.61 47.88
54.62 53.66 52.80 52.12 51.70 51.28 50.86 50.22 49.94 49.85 49.76 49.63 49.86 50.30 50.78 50.96 50.48 50.13 49.86 49.73 49.82 49.87 49.79 49.63 49.44 49.17 48.72 48.23 47.88 47.47 47.16 46.89 46.39 45.90 45.58 45.54 45.40 44.99 44.63 44.63 44.72 44.72 44.45 43.81 43.50 43.27 43.36 44.08 43.85 43.45 43.27 43.41 43.41 43.54 43.90 44.35 44.80 45.21 45.85 46.93 47.20 46.89 46.35 46.30 47.07 47.88 48.92 50.32 50.91
53.94 53.26 52.67 52.22 51.57 51.19 50.62 49.85 49.58 49.37 49.15 48.89 49.03 49.34 49.51 49.43 48.99 48.90 48.89 49.06 48.88 48.40 47.96 47.87 48.19 47.96 47.47 46.76 46.31 45.86 45.45 45.04 44.41 43.78 43.28 42.96 42.91 42.23 41.59 41.72 42.27 42.54 42.49 41.96 41.65 41.73 42.04 42.72 43.13 42.49 41.96 42.83 42.01 42.14 42.82 43.67 43.40 44.08 45.26 46.44 46.25 46.44 46.57 46.17 46.66 47.43 48.61 49.78 50.99
52.67 52.45 52.08 51.85 51.06 50.58 49.96 49.27 49.07 48.96 48.75 48.67 48.58 48.54 48.58 48.41 48.32 48.40 48.44 48.35 47.69 46.80 46.18 46.13 46.80 46.85 46.40 45.72 45.00 44.59 44.10 43.15 42.83 42.65 42.33 41.65 40.69 40.14 40.00 40.45 40.92 40.92 40.74 40.29 40.57 41.19 41.68 41.82 41.91 41.91 41.82 41.91 40.87 41.09 41.86 42.68 42.73 43.77 45.13 46.17 46.57 46.57 46.03 44.81 44.54 45.49 46.93 48.42 49.96
51.49 51.35 51.16 50.87 50.48 49.86 49.27 48.80 48.77 48.83 48.80 48.68 48.36 48.27 48.27 48.28 48.41 48.67 48.67 48.01 47.03 46.13 45.37 45.18 45.59 45.68 45.32 44.55 43.42 42.74 42.29 42.01 41.70 41.83 41.69 40.78 39.87 39.37 39.42 40.14 40.43 40.26 40.03 39.88 40.03 40.38 40.83 41.32 41.95 42.36 42.32 41.96 40.96 41.64 42.77 43.13 43.68 44.59 45.58 46.35 46.39 46.17 45.49 44.27 43.99 44.44 45.58 47.25 49.01
50.43 50.15 49.95 49.80 49.68 49.32 49.07 48.69 48.88 49.02 48.94 48.50 48.19 48.05 48.10 48.14 48.67 49.03 48.77 47.88 46.76 45.72 45.05 44.82 45.14 44.91 44.19 42.92 42.29 41.88 41.51 41.24 40.97 40.83 40.65 40.29 39.51 39.33 39.43 39.48 39.67 39.72 39.74 39.60 39.46 39.74 40.42 41.37 41.78 42.59 43.59 44.54 44.13 44.72 45.31 45.26 45.44 45.98 46.48 46.75 46.48 46.17 45.76 45.26 44.76 44.99 45.85 47.20 48.56
49.83 49.46 49.37 49.46 49.50 49.47 49.34 49.17 49.13 48.99 48.68 48.23 47.88 47.79 47.74 47.83 48.36 48.54 48.19 47.11 46.09 45.41 45.09 44.73 44.45 43.87 43.01 41.88 41.33 41.01 40.74 40.42 40.46 40.37 40.24 40.15 39.53 39.35 39.40 39.27 39.09 39.17 39.29 39.37 39.79 40.20 40.79 41.82 43.23 44.49 45.39 45.85 46.07 46.39 46.66 46.84 46.93 47.11 47.25 47.20 47.11 46.98 46.75 46.57 46.35 46.57 47.11 47.75 48.33
49.40 49.21 49.21 49.31 49.22 49.23 49.00 48.91 48.83 48.51 48.19 47.83 47.38 47.16 47.12 46.89 47.16 47.16 46.98 46.00 45.32 44.82 44.37 43.87 43.09 42.55 42.14 42.19 41.10 40.60 40.37 40.14 40.14 40.00 39.74 39.47 39.22 38.90 38.80 38.75 38.89 38.93 39.11 39.78 40.92 41.96 42.82 43.54 44.67 45.03 45.08 45.26 45.44 45.80 46.08 46.35 46.53 46.71 46.84 46.89 47.02 47.02 47.02 46.98 47.02 47.16 47.34 47.52 47.66
48.91 48.78 48.78 48.87 48.69 48.60 48.56 48.47 48.42 48.11 47.70 47.20 46.80 46.53 46.40 46.13 45.86 45.86 45.63 44.78 44.14 43.55 42.69 41.78 41.32 41.18 41.18 41.23 40.87 40.23 39.60 39.23 39.23 39.14 38.87 38.65 38.30 37.93 37.65 37.60 38.24 38.65 39.42 41.28 42.50 43.54 44.27 44.36 44.31 44.17 44.13 44.31 44.54 44.85 45.17 45.40 45.67 45.80 45.89 46.12 46.17 46.21 46.21 46.35 46.39 46.44 46.57 46.75 46.93
48.24 48.02 48.02 48.24 48.11 47.93 47.88 47.75 47.66 47.38 46.89 46.35 45.81 45.40 45.04 44.77 44.27 43.78 43.32 42.83 42.24 41.87 41.18 40.05 39.82 39.60 39.23 38.74 39.14 39.32 39.05 38.10 37.92 37.78 37.55 37.42 37.01 36.74 36.65 36.83 37.60 37.92 38.69 40.55 40.87 40.82 40.69 40.69 41.82 42.91 43.58 43.36 43.68 44.08 44.45 44.67 44.81 44.85 44.85 44.85 44.85 44.81 44.81 44.90 44.94 45.08 45.31 45.62 46.08
47.34 47.07 47.16 47.16 47.07 47.07 47.03 46.85 46.53 46.13 45.54 44.91 44.23 43.69 43.14 42.69 42.20 41.65 41.19 40.78 41.06 40.74 40.19 39.59 38.92 38.28 37.87 37.60 38.01 38.92 39.23 37.97 37.33 37.15 37.15 36.97 36.69 36.56 36.74 37.42 39.07 39.76 40.16 40.66 40.61 40.20 39.97 40.38 41.83 42.91 43.36 43.18 43.36 43.59 43.90 44.04 44.04 44.04 43.99 43.90 43.81 43.77 43.72 43.63 43.50 43.63 43.86 44.26 44.72
46.21 45.99 45.90 45.72 45.81 45.72 45.54 45.23 44.82 44.37 43.83 43.24 42.65 42.01 41.38 40.70 40.61 40.61 40.33 39.60 39.42 39.06 38.79 38.92 38.19 37.60 37.28 37.19 37.56 38.16 38.61 38.60 37.42 37.38 37.52 37.21 36.88 36.92 37.55 38.55 40.11 39.93 39.21 38.98 38.79 38.83 39.28 40.78 41.91 42.37 42.41 42.36 42.86 43.09 43.14 43.23 43.23 43.14 43.09 43.04 42.86 42.68 42.59 42.46 42.27 42.23 42.41 42.73 43.18
44.37 44.28 44.32 44.32 44.37 44.14 43.69 43.10 42.87 42.56 42.20 41.65 41.11 40.43 39.83 39.38 39.56 39.47 39.19 38.74 38.11 37.89 37.89 37.84 37.51 37.33 37.19 37.10 37.24 37.43 37.75 38.34 37.24 37.29 37.66 37.62 37.57 38.15 38.74 38.92 39.24 38.38 37.25 36.79 36.83 37.01 37.60 38.46 38.96 39.42 39.96 40.68 41.78 42.14 42.19 42.59 42.55 42.41 42.23 42.14 42.00 41.78 41.64 41.55 41.41 41.41 41.50 41.69 41.96
42.43 42.47 42.74 43.01 43.06 42.88 42.51 42.11 41.93 41.65 41.25 40.70 40.11 39.65 39.25 39.06 38.74 38.42 38.15 38.01 37.83 37.69 37.38 37.06 36.96 37.01 37.01 36.74 36.83 36.88 37.12 37.39 36.57 36.88 37.48 37.39 37.94 38.98 39.52 38.45 38.57 38.43 38.19 37.78 37.88 37.97 37.97 37.74 37.92 38.19 38.64 39.28 40.23 41.10 41.78 42.19 41.96 41.74 41.60 41.47 41.38 41.15 40.92 40.78 40.74 40.78 40.83 40.92 41.05
41.07 41.38 41.75 42.02 42.38 42.52 42.47 41.84 41.47 41.07 40.57 39.97 39.47 39.19 38.96 38.65 38.29 38.19 38.01 37.83 38.20 37.51 36.47 35.97 36.10 36.56 36.92 37.15 37.15 37.07 36.85 36.39 35.97 36.25 36.61 36.53 36.85 37.44 37.66 37.14 37.36 37.90 38.16 37.59 37.26 37.21 37.25 37.56 37.69 37.73 37.83 38.19 39.14 40.14 40.83 41.10 41.19 41.06 40.92 40.97 40.79 40.61 40.38 40.15 40.02 40.15 40.29 40.42 40.51
41.07 41.43 41.79 42.15 41.79 41.79 41.79 41.47 41.11 40.61 39.97 39.28 38.87 38.51 38.33 38.28 38.19 37.97 37.70 37.30 37.25 37.07 36.83 36.38 36.97 37.66 38.48 39.57 39.16 38.21 37.15 36.15 35.61 35.56 35.79 36.15 36.12 36.02 35.79 35.59 35.47 35.73 36.27 37.14 38.04 38.85 39.44 39.88 39.10 38.59 38.46 38.87 39.51 39.78 40.00 40.24 40.37 40.37 40.37 40.38 40.20 39.97 39.70 39.66 39.61 39.47 39.47 39.83 40.15
41.52 41.75 41.79 41.70 41.47 41.38 41.34 41.16 40.75 39.97 39.10 38.19 37.83 37.74 37.78 37.74 37.60 37.33 37.15 37.03 36.85 37.57 38.21 38.12 39.61 39.99 39.85 39.76 38.93 38.02 37.33 37.11 36.88 36.52 36.02 35.97 36.42 36.65 36.51 36.15 35.75 35.66 36.26 37.96 41.17 43.13 44.17 44.35 43.16 41.65 40.32 39.28 39.23 39.42 39.69 39.83 39.96 40.01 40.01 40.01 39.93 39.65 39.38 39.12 38.94 39.12 39.48 39.83 40.11
41.38 41.47 41.34 41.07 41.16 41.02 40.75 40.43 39.93 39.11 38.29 37.56 37.29 37.06 36.87 36.56 36.51 36.47 36.38 36.43 36.25 36.16 36.30 36.34 37.89 38.79 38.79 37.74 36.92 36.87 37.06 37.42 37.93 37.25 36.20 35.51 36.19 36.74 37.28 37.73 38.01 37.83 38.24 40.38 43.13 44.58 45.34 45.87 46.14 45.02 42.89 39.91 39.51 39.37 39.42 39.65 39.92 39.92 39.83 39.83 39.70 39.29 38.75 38.34 38.49 38.89 39.21 39.52 39.79
40.98 40.70 40.52 40.52 40.71 40.57 40.21 39.89 39.66 39.11 38.30 37.48 37.25 36.97 36.88 37.15 37.29 37.15 36.70 36.06 35.65 35.51 35.56 35.56 36.15 38.11 39.15 37.15 36.43 36.28 36.47 36.87 37.69 37.69 37.19 36.38 36.65 36.51 36.65 37.55 37.64 38.06 39.48 42.45 44.13 45.07 45.65 46.23 46.75 46.49 44.80 41.05 39.82 39.19 38.92 38.87 39.56 39.74 39.56 39.32 39.01 38.65 38.24 37.89 37.94 38.34 38.71 39.03 39.26
40.30 40.02 39.93 40.03 40.07 39.84 39.48 39.21 39.03 38.52 37.94 37.48 37.89 38.16 39.20 41.61 41.66 40.84 39.33 37.29 36.43 36.01 35.79 35.74 37.33 38.19 37.83 35.79 35.83 35.97 36.19 36.38 36.47 36.69 37.10 37.64 37.78 37.42 36.83 36.38 36.69 38.33 40.84 43.81 44.71 45.38 45.87 46.45 46.75 46.93 46.00 43.32 39.74 38.64 38.73 38.96 39.55 39.51 39.10 38.74 38.46 38.11 37.79 37.65 37.79 37.89 37.98 38.03 38.44
39.66 39.62 39.75 39.93 39.66 39.25 38.93 38.62 38.67 38.63 38.59 38.59 39.08 39.17 39.61 41.06 41.47 41.28 40.47 39.28 38.19 36.88 36.01 36.10 38.14 37.64 36.02 34.66 34.73 35.30 35.96 35.92 35.83 36.06 36.51 37.37 37.42 37.06 36.49 36.17 36.20 37.97 40.71 43.80 44.76 45.39 45.87 46.31 46.49 46.62 46.40 45.38 41.34 39.45 38.96 39.14 39.42 39.32 39.05 38.65 38.38 38.11 37.84 37.70 37.79 37.79 37.74 37.70 37.80
39.43 39.66 39.89 39.84 39.47 39.11 38.93 38.80 40.19 41.30 41.67 41.26 40.69 40.08 39.47 38.79 38.70 39.10 39.65 40.19 38.33 36.88 36.06 36.19 36.67 36.94 36.89 36.30 35.68 35.77 36.12 36.34 37.97 38.06 37.29 36.20 35.75 35.37 35.48 36.07 35.64 36.53 39.03 43.38 44.58 45.39 45.74 45.96 45.92 45.83 45.69 45.48 42.53 40.14 38.78 38.96 38.92 38.92 38.92 38.65 38.20 37.93 37.70 37.61 37.48 37.47 37.52 37.65 37.52
39.43 39.70 39.84 39.66 39.25 39.02 39.02 39.25 40.91 42.16 42.71 42.48 42.15 41.58 40.71 39.43 39.24 39.46 39.60 39.14 37.60 37.51 37.42 35.92 36.15 36.91 37.66 37.97 37.79 37.26 36.99 37.48 39.56 40.23 39.42 37.42 37.79 36.94 35.97 36.60 35.88 36.78 39.40 43.82 44.76 45.21 45.35 45.52 45.34 45.21 45.07 44.99 42.03 39.32 37.64 38.01 38.33 38.51 38.51 38.42 37.98 37.66 37.57 37.44 37.16 36.93 36.84 37.07 37.20
39.29 39.56 39.74 39.70 39.33 39.15 39.11 39.20 40.52 41.85 42.67 42.71 42.57 42.30 42.02 41.56 41.28 41.32 41.10 40.42 38.51 37.74 37.33 36.66 37.26 38.07 38.78 39.37 39.19 38.92 39.10 39.96 40.69 40.96 40.96 40.87 39.51 37.56 36.28 37.01 36.31 37.59 40.41 44.20 44.76 44.95 45.08 45.17 44.99 44.81 44.59 44.41 41.31 38.42 36.65 36.96 37.29 37.56 37.78 37.79 37.48 37.17 36.99 36.85 36.48 36.39 36.48 36.66 36.93
38.98 39.29 39.52 39.60 39.42 39.23 39.23 39.32 39.88 41.01 42.11 42.65 42.51 42.42 42.15 41.87 41.46 41.37 41.37 41.28 39.23 38.19 38.06 38.92 39.01 39.55 40.05 40.23 39.69 39.78 40.23 41.00 41.37 41.73 41.82 41.64 40.15 38.46 37.29 37.55 36.92 38.70 41.66 44.22 44.59 44.81 44.86 44.86 44.59 44.37 44.05 43.69 39.42 36.25 34.65 35.11 35.83 36.43 36.79 36.75 36.48 36.35 36.30 36.08 35.71 35.71 35.93 36.30 36.57
38.24 38.60 39.10 39.64 39.69 40.05 40.28 40.01 39.65 40.42 41.51 42.28 42.19 42.10 41.92 41.55 41.28 41.28 41.37 41.32 40.42 39.96 39.69 39.82 40.05 40.28 40.46 40.55 40.41 40.55 40.96 41.69 41.37 41.09 40.77 40.42 39.92 39.14 38.33 38.01 37.48 39.39 42.17 44.04 44.32 44.46 44.46 44.33 44.02 43.70 43.21 42.20 37.46 34.52 33.25 33.70 34.65 35.43 35.84 35.71 35.62 35.62 35.62 35.53 35.40 35.26 35.21 35.57 35.93
38.20 38.74 39.37 40.00 40.46 40.32 39.82 39.10 39.05 39.74 40.69 41.55 41.51 41.46 41.28 41.06 40.87 41.05 41.37 41.82 41.55 41.00 40.59 40.77 41.14 41.28 41.32 41.46 41.37 41.28 41.32 41.41 40.68 40.32 40.14 39.82 39.69 39.96 39.87 38.69 38.01 39.80 42.35 43.82 44.05 44.06 43.93 43.71 43.40 43.00 41.96 39.74 35.90 33.62 32.80 33.35 34.25 34.68 34.78 34.62 34.71 34.53 34.35 34.30 34.46 34.45 34.45 34.80 35.12
38.74 39.33 39.60 39.69 39.55 38.92 38.24 37.92 38.28 39.05 40.00 40.82 40.92 40.87 40.69 40.60 40.60 40.87 41.55 42.28 41.37 40.69 40.55 41.18 41.45 41.63 41.68 41.63 41.55 41.59 41.24 39.87 39.37 39.51 39.82 39.92 39.60 39.51 39.14 38.42 38.28 39.88 41.99 43.46 43.70 43.58 43.41 43.06 42.75 42.25 40.71 37.06 34.37 32.95 32.59 32.86 33.72 33.97 33.86 33.71 33.60 33.36 32.97 32.77 33.08 33.48 33.86 34.12 34.40
39.19 39.92 39.70 39.05 38.15 37.74 37.69 37.92 38.50 39.23 40.05 40.69 40.78 40.60 40.42 40.38 40.37 40.60 41.01 41.78 40.91 40.59 40.77 41.18 41.32 41.32 41.18 40.96 40.28 39.78 39.05 37.60 38.24 39.10 39.83 40.24 39.65 39.05 38.42 38.05 37.74 38.60 40.39 42.68 43.17 43.18 42.88 42.53 42.41 41.60 39.37 34.66 32.55 31.73 31.78 32.23 33.10 33.43 33.25 32.85 32.53 32.22 31.96 31.48 31.73 32.51 33.41 34.04 34.45
38.88 40.06 40.47 40.02 39.74 39.47 39.15 39.06 39.23 39.78 40.28 40.78 40.74 40.56 40.33 40.29 40.33 40.46 40.78 41.51 41.00 40.86 40.86 40.91 40.86 40.55 40.23 39.74 38.28 37.69 37.69 38.15 38.60 39.06 39.46 39.83 39.32 38.51 37.69 37.06 36.52 37.11 38.79 41.68 42.63 42.88 42.71 42.27 42.24 41.50 39.11 33.90 32.10 31.64 31.87 32.10 32.69 32.94 32.84 32.47 32.21 31.93 31.52 31.01 31.19 31.98 33.07 34.15 35.62
39.74 40.74 41.24 40.93 40.88 40.79 40.61 40.38 40.01 40.06 40.42 40.83 40.60 40.33 40.15 40.29 40.15 40.37 40.74 41.05 40.92 40.87 40.83 40.64 40.23 39.96 39.60 39.20 38.24 37.83 37.78 37.93 38.30 38.57 38.74 38.65 38.47 38.24 37.65 36.43 36.06 36.65 38.30 41.04 42.26 42.65 42.58 42.24 42.15 41.82 40.31 36.61 33.41 32.37 32.37 32.24 32.28 32.40 32.39 32.19 32.01 31.77 31.51 31.06 30.98 31.64 32.59 33.81 36.60
41.32 41.91 42.06 41.79 41.43 41.20 41.02 40.79 39.97 39.88 40.34 40.93 40.79 40.52 40.33 40.38 40.33 40.56 40.74 40.37 40.51 40.74 40.78 40.38 39.88 39.56 39.65 39.93 38.75 37.79 36.97 36.43 36.34 36.71 37.25 37.52 38.03 38.66 38.62 37.25 36.34 36.43 37.62 40.08 41.66 42.28 42.40 42.24 42.03 41.92 40.85 37.90 34.24 32.82 32.50 32.06 31.74 31.71 31.87 31.93 31.57 31.53 31.44 31.27 30.94 31.22 31.77 32.53 35.29
41.73 42.37 42.64 42.46 41.88 41.43 41.07 40.70 39.80 39.66 40.12 41.02 40.93 40.79 40.75 40.88 40.56 40.38 40.19 39.92 40.19 40.42 40.42 40.15 39.56 39.29 39.29 39.70 38.34 37.34 36.47 35.57 34.98 34.85 35.17 35.95 36.67 37.62 38.03 36.85 35.75 35.29 35.75 37.57 40.15 41.59 42.20 42.10 41.90 41.80 40.92 38.66 34.26 32.69 32.50 32.15 31.56 31.34 31.35 31.63 31.03 30.83 30.81 31.01 31.10 31.20 31.31 31.61 32.62
MSLP
1013.71 1013.77 1013.83 1013.91 1013.99 1014.11 1014.27 1014.41 1014.53 1014.65 1014.77 1014.91 1015.15 1015.41 1015.59 1015.81 1016.03 1016.19 1016.25 1016.33 1016.47 1016.59 1016.71 1016.77 1016.81 1016.87 1016.83 1016.81 1016.81 1016.83 1016.93 1017.05 1017.19 1017.31 1017.47 1017.59 1017.75 1017.87 1017.99 1018.09 1018.19 1018.27 1018.37 1018.47 1018.53 1018.63 1018.71 1018.81 1018.91 1018.99 1019.11 1019.19 1019.27 1019.33 1019.37 1019.41 1019.43 1019.41 1019.27 1019.11 1019.03 1019.05 1019.15 1019.31 1019.41 1019.53 1019.63 1019.65 1019.59
1013.83 1013.91 1013.93 1013.99 1014.03 1014.09 1014.21 1014.37 1014.49 1014.63 1014.75 1014.93 1015.15 1015.37 1015.55 1015.77 1015.99 1016.19 1016.31 1016.37 1016.47 1016.55 1016.69 1016.77 1016.83 1016.83 1016.83 1016.81 1016.77 1016.81 1016.87 1016.99 1017.15 1017.25 1017.41 1017.59 1017.75 1017.91 1018.03 1018.19 1018.27 1018.37 1018.49 1018.55 1018.65 1018.75 1018.83 1018.93 1019.03 1019.11 1019.21 1019.27 1019.41 1019.49 1019.59 1019.65 1019.71 1019.75 1019.65 1019.47 1019.27 1019.21 1019.27 1019.31 1019.33 1019.37 1019.43 1019.47 1019.47
1013.93 1014.11 1014.25 1014.31 1014.31 1014.27 1014.27 1014.41 1014.53 1014.65 1014.77 1014.97 1015.15 1015.33 1015.53 1015.75 1015.93 1016.11 1016.27 1016.37 1016.43 1016.53 1016.63 1016.75 1016.81 1016.81 1016.81 1016.77 1016.77 1016.77 1016.83 1016.93 1017.05 1017.21 1017.41 1017.59 1017.75 1017.87 1018.03 1018.15 1018.27 1018.37 1018.49 1018.63 1018.71 1018.83 1018.93 1019.05 1019.11 1019.19 1019.25 1019.31 1019.41 1019.49 1019.63 1019.71 1019.81 1019.93 1019.99 1019.97 1019.83 1019.71 1019.65 1019.59 1019.47 1019.43 1019.47 1019.47 1019.41
1013.99 1014.25 1014.47 1014.55 1014.59 1014.47 1014.37 1014.47 1014.65 1014.75 1014.81 1014.97 1015.15 1015.37 1015.55 1015.75 1015.91 1016.09 1016.21 1016.33 1016.43 1016.49 1016.59 1016.65 1016.71 1016.77 1016.77 1016.77 1016.77 1016.77 1016.81 1016.93 1017.09 1017.27 1017.47 1017.63 1017.75 1017.83 1017.97 1018.05 1018.19 1018.33 1018.49 1018.65 1018.77 1018.87 1018.99 1019.09 1019.15 1019.21 1019.25 1019.33 1019.41 1019.49 1019.63 1019.75 1019.83 1019.93 1020.05 1020.15 1020.19 1020.05 1019.83 1019.63 1019.53 1019.53 1019.55 1019.53 1019.43
1013.99 1014.27 1014.53 1014.63 1014.63 1014.49 1014.49 1014.65 1014.91 1014.93 1014.91 1014.97 1015.15 1015.41 1015.63 1015.81 1015.93 1016.09 1016.21 1016.31 1016.41 1016.47 1016.55 1016.63 1016.69 1016.75 1016.77 1016.81 1016.81 1016.87 1016.93 1017.03 1017.15 1017.33 1017.49 1017.65 1017.77 1017.83 1017.93 1018.05 1018.19 1018.33 1018.53 1018.69 1018.81 1018.91 1019.03 1019.11 1019.19 1019.27 1019.33 1019.43 1019.53 1019.59 1019.69 1019.77 1019.87 1019.93 1019.99 1020.09 1020.19 1020.05 1019.81 1019.63 1019.55 1019.55 1019.55 1019.53 1019.47
1014.03 1014.25 1014.41 1014.47 1014.43 1014.37 1014.53 1014.99 1015.19 1015.09 1014.93 1014.97 1015.15 1015.43 1015.69 1015.87 1015.99 1016.09 1016.21 1016.37 1016.43 1016.49 1016.55 1016.59 1016.65 1016.71 1016.81 1016.87 1016.97 1017.05 1017.19 1017.31 1017.41 1017.49 1017.63 1017.75 1017.81 1017.91 1018.03 1018.19 1018.31 1018.47 1018.59 1018.75 1018.87 1018.99 1019.11 1019.21 1019.31 1019.41 1019.53 1019.59 1019.65 1019.71 1019.77 1019.83 1019.87 1019.91 1019.97 1020.03 1020.09 1019.99 1019.81 1019.69 1019.63 1019.59 1019.59 1019.59 1019.53
1014.21 1014.27 1014.31 1014.31 1014.25 1014.33 1014.71 1015.21 1015.21 1015.03 1014.91 1014.99 1015.19 1015.41 1015.65 1015.87 1015.99 1016.15 1016.27 1016.41 1016.49 1016.55 1016.59 1016.65 1016.69 1016.75 1016.83 1016.99 1017.15 1017.27 1017.41 1017.53 1017.63 1017.71 1017.77 1017.87 1017.97 1018.05 1018.19 1018.37 1018.53 1018.65 1018.77 1018.91 1019.03 1019.15 1019.25 1019.31 1019.41 1019.53 1019.65 1019.71 1019.71 1019.77 1019.81 1019.87 1019.91 1019.97 1020.03 1020.03 1019.97 1019.91 1019.81 1019.77 1019.71 1019.75 1019.75 1019.69 1019.63
1014.43 1014.37 1014.27 1014.27 1014.27 1014.47 1014.87 1015.27 1015.19 1014.99 1014.93 1015.03 1015.21 1015.41 1015.63 1015.81 1015.99 1016.19 1016.31 1016.43 1016.55 1016.65 1016.71 1016.75 1016.81 1016.91 1016.97 1017.09 1017.25 1017.41 1017.55 1017.69 1017.81 1017.91 1017.97 1018.05 1018.15 1018.27 1018.41 1018.53 1018.69 1018.81 1018.97 1019.05 1019.15 1019.25 1019.27 1019.33 1019.41 1019.47 1019.53 1019.55 1019.55 1019.65 1019.77 1019.91 1019.99 1020.05 1020.05 1019.99 1019.91 1019.87 1019.87 1019.87 1019.87 1019.87 1019.81 1019.75 1019.65
1014.53 1014.41 1014.33 1014.33 1014.49 1014.71 1014.99 1015.25 1015.15 1015.03 1015.03 1015.15 1015.27 1015.43 1015.63 1015.83 1016.03 1016.21 1016.37 1016.53 1016.69 1016.75 1016.81 1016.91 1016.99 1017.05 1017.15 1017.25 1017.37 1017.53 1017.69 1017.87 1017.99 1018.11 1018.21 1018.27 1018.37 1018.49 1018.63 1018.75 1018.83 1018.97 1019.11 1019.21 1019.27 1019.31 1019.33 1019.31 1019.33 1019.41 1019.49 1019.63 1019.71 1019.81 1019.91 1019.99 1020.03 1019.99 1019.93 1019.83 1019.81 1019.81 1019.83 1019.87 1019.91 1019.83 1019.75 1019.65 1019.55
1014.49 1014.41 1014.41 1014.53 1014.71 1014.93 1015.11 1015.25 1015.19 1015.11 1015.19 1015.31 1015.41 1015.53 1015.69 1015.87 1016.09 1016.27 1016.47 1016.65 1016.75 1016.83 1016.97 1017.11 1017.19 1017.25 1017.33 1017.47 1017.55 1017.69 1017.83 1017.99 1018.11 1018.27 1018.37 1018.41 1018.49 1018.63 1018.75 1018.87 1018.99 1019.11 1019.21 1019.27 1019.33 1019.37 1019.37 1019.41 1019.49 1019.59 1019.69 1019.83 1019.91 1019.93 1019.97 1019.97 1019.97 1019.91 1019.83 1019.77 1019.71 1019.75 1019.75 1019.75 1019.75 1019.71 1019.63 1019.49 1019.41
1014.43 1014.43 1014.47 1014.65 1014.93 1015.11 1015.25 1015.27 1015.25 1015.25 1015.27 1015.41 1015.49 1015.65 1015.81 1015.99 1016.19 1016.41 1016.53 1016.65 1016.81 1016.99 1017.19 1017.27 1017.31 1017.37 1017.47 1017.59 1017.71 1017.83 1017.97 1018.09 1018.21 1018.37 1018.47 1018.49 1018.55 1018.69 1018.83 1018.99 1019.11 1019.25 1019.33 1019.41 1019.47 1019.49 1019.49 1019.55 1019.69 1019.77 1019.83 1019.93 1019.97 1019.93 1019.91 1019.91 1019.93 1019.91 1019.87 1019.83 1019.83 1019.83 1019.81 1019.75 1019.71 1019.69 1019.55 1019.41 1019.27
1014.43 1014.49 1014.63 1014.83 1015.19 1015.41 1015.41 1015.31 1015.25 1015.25 1015.33 1015.47 1015.63 1015.77 1015.93 1016.11 1016.27 1016.43 1016.55 1016.69 1016.91 1017.15 1017.31 1017.41 1017.41 1017.47 1017.59 1017.75 1017.93 1018.05 1018.15 1018.27 1018.41 1018.47 1018.53 1018.63 1018.69 1018.81 1018.97 1019.11 1019.25 1019.33 1019.47 1019.55 1019.63 1019.65 1019.69 1019.75 1019.81 1019.83 1019.87 1019.91 1019.93 1019.97 1019.93 1019.97 1019.97 1019.99 1019.97 1019.93 1019.93 1019.93 1019.87 1019.81 1019.75 1019.69 1019.55 1019.41 1019.21
1014.59 1014.75 1014.97 1015.25 1015.49 1015.65 1015.59 1015.31 1015.25 1015.31 1015.47 1015.63 1015.81 1015.97 1016.11 1016.27 1016.37 1016.43 1016.55 1016.75 1016.99 1017.21 1017.37 1017.47 1017.49 1017.55 1017.71 1017.97 1018.19 1018.31 1018.41 1018.47 1018.49 1018.55 1018.65 1018.71 1018.87 1018.99 1019.11 1019.25 1019.37 1019.47 1019.53 1019.65 1019.71 1019.75 1019.77 1019.81 1019.87 1019.91 1019.91 1019.91 1019.97 1019.99 1020.03 1020.09 1020.09 1020.09 1020.03 1019.97 1019.93 1019.87 1019.81 1019.75 1019.69 1019.63 1019.53 1019.37 1019.21
1015.03 1015.19 1015.41 1015.63 1015.71 1015.71 1015.63 1015.47 1015.43 1015.53 1015.69 1015.87 1016.03 1016.21 1016.41 1016.53 1016.53 1016.53 1016.63 1016.81 1016.99 1017.15 1017.31 1017.47 1017.63 1017.77 1017.97 1018.15 1018.33 1018.43 1018.49 1018.55 1018.59 1018.65 1018.75 1018.87 1018.99 1019.09 1019.21 1019.33 1019.43 1019.53 1019.63 1019.69 1019.77 1019.81 1019.83 1019.87 1019.93 1019.97 1019.99 1019.99 1019.99 1020.03 1020.09 1020.11 1020.11 1020.05 1019.99 1019.93 1019.83 1019.77 1019.69 1019.63 1019.59 1019.53 1019.41 1019.27 1019.15
1015.43 1015.53 1015.63 1015.71 1015.71 1015.71 1015.71 1015.75 1015.77 1015.83 1015.97 1016.15 1016.37 1016.59 1016.75 1016.81 1016.75 1016.69 1016.71 1016.83 1016.99 1017.11 1017.27 1017.49 1017.83 1018.05 1018.21 1018.33 1018.43 1018.49 1018.53 1018.59 1018.65 1018.71 1018.83 1018.99 1019.09 1019.19 1019.27 1019.41 1019.49 1019.63 1019.71 1019.77 1019.87 1019.93 1019.99 1020.03 1020.05 1020.05 1020.05 1020.09 1020.09 1020.09 1020.09 1020.05 1020.03 1019.99 1019.91 1019.83 1019.75 1019.65 1019.55 1019.49 1019.47 1019.41 1019.33 1019.25 1019.15
1015.55 1015.55 1015.55 1015.59 1015.65 1015.75 1015.93 1016.05 1016.15 1016.21 1016.33 1016.53 1016.77 1016.97 1017.05 1017.03 1016.93 1016.87 1016.87 1016.97 1017.05 1017.19 1017.37 1017.69 1017.99 1018.19 1018.31 1018.43 1018.49 1018.53 1018.59 1018.65 1018.69 1018.81 1018.93 1019.05 1019.19 1019.31 1019.41 1019.53 1019.65 1019.75 1019.87 1019.93 1019.99 1020.03 1020.05 1020.05 1020.09 1020.11 1020.15 1020.11 1020.11 1020.09 1020.09 1020.05 1019.99 1019.93 1019.83 1019.75 1019.69 1019.59 1019.53 1019.47 1019.41 1019.37 1019.31 1019.27 1019.21
1015.41 1015.33 1015.33 1015.47 1015.65 1015.91 1016.11 1016.25 1016.37 1016.47 1016.63 1016.81 1017.03 1017.19 1017.27 1017.27 1017.21 1017.11 1017.09 1017.15 1017.25 1017.41 1017.59 1017.87 1018.05 1018.25 1018.37 1018.53 1018.59 1018.63 1018.65 1018.75 1018.83 1018.97 1019.09 1019.21 1019.33 1019.47 1019.59 1019.71 1019.81 1019.91 1019.97 1019.99 1020.05 1020.09 1020.09 1020.09 1020.09 1020.11 1020.15 1020.15 1020.11 1020.09 1020.05 1020.03 1019.97 1019.87 1019.81 1019.71 1019.65 1019.59 1019.55 1019.47 1019.43 1019.41 1019.33 1019.27 1019.25
1015.21 1015.25 1015.41 1015.65 1015.87 1016.05 1016.21 1016.37 1016.53 1016.59 1016.69 1016.87 1017.09 1017.21 1017.31 1017.37 1017.43 1017.43 1017.41 1017.41 1017.47 1017.59 1017.81 1018.03 1018.19 1018.31 1018.47 1018.63 1018.69 1018.71 1018.77 1018.87 1018.99 1019.15 1019.27 1019.41 1019.49 1019.63 1019.75 1019.87 1019.97 1020.03 1020.05 1020.05 1020.11 1020.15 1020.19 1020.19 1020.15 1020.15 1020.15 1020.11 1020.11 1020.05 1020.03 1019.97 1019.91 1019.83 1019.77 1019.71 1019.65 1019.59 1019.55 1019.49 1019.43 1019.41 1019.37 1019.31 1019.25
1015.31 1015.53 1015.75 1015.91 1016.11 1016.25 1016.37 1016.55 1016.71 1016.77 1016.81 1016.93 1017.11 1017.21 1017.31 1017.41 1017.49 1017.59 1017.63 1017.65 1017.65 1017.75 1017.91 1018.11 1018.27 1018.41 1018.55 1018.69 1018.81 1018.87 1018.93 1019.03 1019.19 1019.33 1019.47 1019.59 1019.69 1019.77 1019.87 1019.97 1020.03 1020.05 1020.11 1020.11 1020.15 1020.19 1020.21 1020.21 1020.19 1020.15 1020.15 1020.09 1020.05 1020.03 1019.97 1019.93 1019.87 1019.77 1019.71 1019.69 1019.63 1019.55 1019.53 1019.47 1019.43 1019.41 1019.37 1019.33 1019.27
1015.55 1015.81 1015.99 1016.09 1016.25 1016.41 1016.55 1016.71 1016.81 1016.87 1016.91 1017.03 1017.15 1017.27 1017.37 1017.47 1017.53 1017.59 1017.69 1017.77 1017.83 1017.87 1017.97 1018.15 1018.33 1018.53 1018.69 1018.83 1018.97 1019.05 1019.19 1019.27 1019.41 1019.53 1019.65 1019.75 1019.83 1019.91 1019.93 1019.99 1020.03 1020.09 1020.19 1020.21 1020.25 1020.25 1020.25 1020.21 1020.19 1020.15 1020.11 1020.05 1019.99 1019.97 1019.91 1019.83 1019.77 1019.71 1019.65 1019.63 1019.59 1019.53 1019.49 1019.47 1019.47 1019.43 1019.41 1019.37 1019.31
1015.81 1015.99 1016.15 1016.27 1016.41 1016.55 1016.69 1016.81 1016.87 1016.91 1016.97 1017.09 1017.21 1017.31 1017.41 1017.49 1017.55 1017.63 1017.71 1017.81 1017.91 1017.97 1018.09 1018.27 1018.49 1018.69 1018.87 1018.99 1019.11 1019.27 1019.41 1019.49 1019.59 1019.69 1019.81 1019.87 1019.93 1019.99 1020.03 1020.09 1020.11 1020.19 1020.25 1020.31 1020.27 1020.25 1020.21 1020.19 1020.15 1020.11 1020.05 1020.03 1019.97 1019.91 1019.83 1019.77 1019.71 1019.65 1019.63 1019.55 1019.53 1019.49 1019.49 1019.47 1019.43 1019.43 1019.41 1019.33 1019.27
1016.05 1016.21 1016.37 1016.47 1016.59 1016.71 1016.81 1016.87 1016.93 1016.97 1017.05 1017.15 1017.25 1017.33 1017.41 1017.49 1017.63 1017.71 1017.81 1017.87 1017.93 1018.09 1018.27 1018.47 1018.65 1018.81 1018.99 1019.11 1019.27 1019.41 1019.53 1019.63 1019.71 1019.81 1019.87 1019.93 1019.99 1020.03 1020.09 1020.15 1020.19 1020.21 1020.25 1020.27 1020.27 1020.21 1020.19 1020.15 1020.09 1020.03 1019.97 1019.97 1019.91 1019.81 1019.75 1019.71 1019.69 1019.63 1019.59 1019.55 1019.49 1019.49 1019.49 1019.47 1019.43 1019.41 1019.37 1019.31 1019.25
1016.21 1016.37 1016.53 1016.63 1016.71 1016.77 1016.83 1016.93 1016.99 1017.05 1017.15 1017.25 1017.33 1017.43 1017.53 1017.63 1017.71 1017.81 1017.91 1017.99 1018.11 1018.27 1018.43 1018.63 1018.77 1018.91 1019.05 1019.15 1019.27 1019.41 1019.53 1019.69 1019.77 1019.87 1019.91 1019.99 1020.03 1020.09 1020.11 1020.15 1020.19 1020.21 1020.21 1020.21 1020.19 1020.15 1020.09 1020.03 1019.97 1019.91 1019.87 1019.83 1019.81 1019.75 1019.71 1019.71 1019.69 1019.63 1019.59 1019.55 1019.55 1019.53 1019.49 1019.47 1019.43 1019.41 1019.37 1019.31 1019.25
1016.31 1016.43 1016.53 1016.65 1016.71 1016.81 1016.87 1016.93 1016.99 1017.11 1017.25 1017.37 1017.43 1017.53 1017.65 1017.75 1017.83 1017.93 1018.05 1018.15 1018.27 1018.43 1018.55 1018.71 1018.87 1018.99 1019.09 1019.19 1019.27 1019.41 1019.53 1019.65 1019.81 1019.91 1019.93 1019.99 1020.03 1020.05 1020.09 1020.11 1020.15 1020.15 1020.15 1020.15 1020.09 1020.03 1019.93 1019.87 1019.83 1019.81 1019.77 1019.75 1019.71 1019.71 1019.71 1019.71 1019.71 1019.69 1019.65 1019.63 1019.59 1019.55 1019.53 1019.47 1019.43 1019.41 1019.37 1019.31 1019.25
1016.33 1016.43 1016.55 1016.65 1016.75 1016.81 1016.91 1016.97 1017.09 1017.25 1017.41 1017.49 1017.55 1017.65 1017.77 1017.91 1017.99 1018.09 1018.21 1018.37 1018.49 1018.59 1018.71 1018.81 1018.91 1018.99 1019.11 1019.21 1019.31 1019.43 1019.53 1019.63 1019.75 1019.83 1019.93 1019.97 1019.97 1019.99 1020.03 1020.05 1020.09 1020.09 1020.05 1020.03 1019.91 1019.81 1019.75 1019.71 1019.69 1019.69 1019.69 1019.69 1019.71 1019.71 1019.71 1019.71 1019.71 1019.71 1019.71 1019.69 1019.63 1019.59 1019.53 1019.49 1019.43 1019.37 1019.33 1019.27 1019.21
1016.37 1016.49 1016.63 1016.69 1016.77 1016.87 1016.97 1017.05 1017.21 1017.33 1017.49 1017.59 1017.69 1017.81 1017.93 1018.05 1018.19 1018.27 1018.43 1018.59 1018.71 1018.81 1018.87 1018.97 1019.03 1019.11 1019.19 1019.31 1019.41 1019.49 1019.55 1019.65 1019.69 1019.77 1019.87 1019.93 1019.97 1019.97 1019.97 1019.97 1019.97 1019.97 1019.93 1019.83 1019.81 1019.75 1019.65 1019.59 1019.53 1019.49 1019.53 1019.63 1019.69 1019.71 1019.71 1019.71 1019.71 1019.71 1019.71 1019.69 1019.65 1019.63 1019.55 1019.53 1019.43 1019.37 1019.31 1019.27 1019.21
1016.53 1016.65 1016.75 1016.81 1016.87 1016.99 1017.11 1017.21 1017.33 1017.47 1017.59 1017.69 1017.83 1017.97 1018.09 1018.21 1018.31 1018.47 1018.63 1018.75 1018.87 1018.97 1019.03 1019.09 1019.15 1019.21 1019.25 1019.37 1019.47 1019.59 1019.65 1019.71 1019.71 1019.75 1019.81 1019.87 1019.93 1019.97 1019.97 1019.93 1019.87 1019.87 1019.87 1019.81 1019.75 1019.69 1019.63 1019.53 1019.43 1019.37 1019.41 1019.55 1019.59 1019.63 1019.65 1019.69 1019.69 1019.69 1019.69 1019.69 1019.63 1019.63 1019.59 1019.55 1019.49 1019.41 1019.33 1019.27 1019.21
1016.69 1016.81 1016.91 1016.99 1017.05 1017.21 1017.31 1017.41 1017.49 1017.65 1017.77 1017.91 1017.99 1018.09 1018.15 1018.25 1018.37 1018.55 1018.75 1018.91 1018.99 1019.05 1019.15 1019.21 1019.25 1019.27 1019.33 1019.43 1019.53 1019.59 1019.63 1019.69 1019.71 1019.75 1019.77 1019.81 1019.83 1019.91 1019.91 1019.91 1019.87 1019.83 1019.81 1019.77 1019.71 1019.65 1019.59 1019.49 1019.43 1019.33 1019.33 1019.47 1019.53 1019.59 1019.63 1019.65 1019.65 1019.65 1019.65 1019.65 1019.63 1019.59 1019.59 1019.55 1019.49 1019.47 1019.41 1019.33 1019.27
1016.81 1016.91 1016.99 1017.11 1017.25 1017.37 1017.47 1017.55 1017.65 1017.77 1017.91 1017.99 1018.11 1018.21 1018.27 1018.37 1018.47 1018.63 1018.75 1018.91 1019.03 1019.11 1019.19 1019.25 1019.25 1019.33 1019.43 1019.49 1019.55 1019.59 1019.63 1019.65 1019.69 1019.71 1019.75 1019.81 1019.83 1019.83 1019.87 1019.91 1019.91 1019.87 1019.81 1019.77 1019.71 1019.63 1019.53 1019.47 1019.41 1019.37 1019.33 1019.37 1019.53 1019.63 1019.63 1019.65 1019.65 1019.65 1019.65 1019.65 1019.59 1019.59 1019.59 1019.55 1019.53 1019.49 1019.43 1019.41 1019.33
1016.91 1016.99 1017.09 1017.25 1017.37 1017.47 1017.59 1017.69 1017.71 1017.81 1017.91 1018.05 1018.19 1018.27 1018.41 1018.53 1018.65 1018.75 1018.83 1018.97 1019.05 1019.15 1019.19 1019.21 1019.31 1019.41 1019.49 1019.55 1019.59 1019.63 1019.65 1019.69 1019.65 1019.65 1019.71 1019.81 1019.83 1019.87 1019.87 1019.91 1019.91 1019.91 1019.83 1019.77 1019.69 1019.59 1019.49 1019.43 1019.43 1019.41 1019.37 1019.33 1019.49 1019.63 1019.65 1019.65 1019.65 1019.63 1019.63 1019.63 1019.59 1019.55 1019.55 1019.55 1019.53 1019.49 1019.49 1019.47 1019.41
1016.99 1017.09 1017.19 1017.33 1017.47 1017.55 1017.65 1017.75 1017.77 1017.83 1017.93 1018.05 1018.19 1018.33 1018.47 1018.59 1018.71 1018.81 1018.91 1018.99 1019.09 1019.11 1019.19 1019.27 1019.33 1019.43 1019.49 1019.55 1019.59 1019.65 1019.69 1019.65 1019.59 1019.59 1019.65 1019.75 1019.77 1019.81 1019.83 1019.87 1019.91 1019.87 1019.81 1019.75 1019.65 1019.55 1019.49 1019.43 1019.43 1019.41 1019.37 1019.37 1019.49 1019.63 1019.65 1019.69 1019.69 1019.65 1019.63 1019.59 1019.59 1019.55 1019.53 1019.53 1019.53 1019.53 1019.53 1019.49 1019.47
1017.11 1017.21 1017.27 1017.41 1017.53 1017.63 1017.71 1017.77 1017.83 1017.91 1017.99 1018.11 1018.25 1018.41 1018.49 1018.63 1018.71 1018.77 1018.83 1018.93 1019.03 1019.15 1019.25 1019.33 1019.37 1019.43 1019.47 1019.49 1019.49 1019.55 1019.55 1019.55 1019.55 1019.59 1019.63 1019.65 1019.69 1019.75 1019.81 1019.83 1019.83 1019.81 1019.77 1019.65 1019.59 1019.53 1019.47 1019.43 1019.43 1019.41 1019.37 1019.37 1019.49 1019.63 1019.65 1019.69 1019.65 1019.63 1019.63 1019.59 1019.55 1019.53 1019.53 1019.53 1019.53 1019.53 1019.53 1019.53 1019.49
1017.25 1017.31 1017.37 1017.49 1017.59 1017.69 1017.77 1017.87 1017.93 1017.97 1018.05 1018.19 1018.31 1018.43 1018.53 1018.59 1018.71 1018.77 1018.87 1018.93 1019.03 1019.11 1019.21 1019.25 1019.31 1019.33 1019.41 1019.41 1019.43 1019.47 1019.47 1019.49 1019.53 1019.55 1019.55 1019.59 1019.65 1019.71 1019.77 1019.81 1019.81 1019.77 1019.69 1019.59 1019.53 1019.49 1019.43 1019.43 1019.43 1019.41 1019.41 1019.43 1019.59 1019.71 1019.75 1019.69 1019.65 1019.63 1019.63 1019.59 1019.55 1019.53 1019.53 1019.53 1019.53 1019.53 1019.53 1019.53 1019.49
1017.33 1017.41 1017.49 1017.59 1017.69 1017.75 1017.81 1017.91 1017.99 1018.03 1018.11 1018.25 1018.37 1018.47 1018.55 1018.63 1018.71 1018.81 1018.83 1018.91 1018.97 1019.03 1019.09 1019.15 1019.21 1019.25 1019.27 1019.31 1019.33 1019.41 1019.43 1019.47 1019.49 1019.55 1019.59 1019.63 1019.63 1019.69 1019.75 1019.75 1019.77 1019.71 1019.63 1019.55 1019.49 1019.47 1019.47 1019.43 1019.43 1019.43 1019.49 1019.55 1019.69 1019.77 1019.77 1019.71 1019.69 1019.65 1019.63 1019.59 1019.55 1019.55 1019.53 1019.49 1019.49 1019.53 1019.49 1019.49 1019.49
1017.43 1017.49 1017.55 1017.65 1017.71 1017.81 1017.91 1017.97 1018.05 1018.11 1018.21 1018.31 1018.41 1018.49 1018.55 1018.63 1018.71 1018.77 1018.83 1018.87 1018.91 1018.97 1019.05 1019.11 1019.15 1019.19 1019.21 1019.27 1019.31 1019.37 1019.41 1019.49 1019.53 1019.53 1019.55 1019.59 1019.63 1019.65 1019.69 1019.71 1019.71 1019.65 1019.59 1019.53 1019.49 1019.47 1019.47 1019.47 1019.47 1019.47 1019.53 1019.65 1019.75 1019.77 1019.77 1019.75 1019.71 1019.69 1019.69 1019.63 1019.59 1019.55 1019.55 1019.53 1019.49 1019.49 1019.49 1019.49 1019.49
1017.47 1017.53 1017.59 1017.69 1017.77 1017.83 1017.93 1018.03 1018.09 1018.19 1018.27 1018.37 1018.43 1018.49 1018.59 1018.65 1018.69 1018.75 1018.81 1018.83 1018.93 1019.03 1019.05 1019.11 1019.11 1019.19 1019.21 1019.27 1019.33 1019.33 1019.41 1019.47 1019.53 1019.55 1019.59 1019.63 1019.65 1019.65 1019.69 1019.71 1019.69 1019.63 1019.55 1019.53 1019.49 1019.49 1019.49 1019.49 1019.49 1019.49 1019.55 1019.69 1019.75 1019.77 1019.75 1019.75 1019.71 1019.69 1019.69 1019.65 1019.59 1019.59 1019.59 1019.55 1019.49 1019.49 1019.49 1019.47 1019.47
1017.49 1017.53 1017.63 1017.71 1017.81 1017.91 1017.93 1017.99 1018.09 1018.19 1018.27 1018.37 1018.43 1018.49 1018.55 1018.63 1018.69 1018.75 1018.77 1018.83 1018.93 1019.03 1019.05 1019.11 1019.15 1019.19 1019.25 1019.31 1019.37 1019.41 1019.43 1019.49 1019.55 1019.55 1019.59 1019.59 1019.63 1019.65 1019.69 1019.71 1019.69 1019.65 1019.63 1019.59 1019.53 1019.53 1019.53 1019.53 1019.53 1019.53 1019.55 1019.69 1019.69 1019.71 1019.75 1019.75 1019.71 1019.69 1019.69 1019.65 1019.63 1019.59 1019.59 1019.55 1019.53 1019.49 1019.43 1019.41 1019.43
1017.53 1017.55 1017.63 1017.69 1017.75 1017.81 1017.83 1017.93 1018.05 1018.15 1018.25 1018.31 1018.37 1018.43 1018.49 1018.55 1018.65 1018.71 1018.75 1018.77 1018.91 1018.99 1019.05 1019.11 1019.15 1019.21 1019.27 1019.33 1019.43 1019.47 1019.49 1019.53 1019.53 1019.55 1019.59 1019.59 1019.63 1019.65 1019.71 1019.75 1019.75 1019.75 1019.71 1019.63 1019.55 1019.53 1019.53 1019.53 1019.53 1019.49 1019.53 1019.63 1019.65 1019.69 1019.71 1019.71 1019.71 1019.69 1019.69 1019.69 1019.65 1019.59 1019.59 1019.59 1019.53 1019.49 1019.43 1019.41 1019.37
1017.47 1017.55 1017.63 1017.65 1017.71 1017.75 1017.77 1017.87 1017.97 1018.05 1018.15 1018.25 1018.33 1018.41 1018.47 1018.49 1018.59 1018.69 1018.71 1018.75 1018.83 1018.93 1019.03 1019.11 1019.15 1019.19 1019.25 1019.33 1019.41 1019.47 1019.49 1019.53 1019.53 1019.55 1019.59 1019.63 1019.65 1019.69 1019.71 1019.77 1019.77 1019.77 1019.71 1019.65 1019.59 1019.53 1019.53 1019.53 1019.49 1019.47 1019.47 1019.59 1019.63 1019.65 1019.71 1019.71 1019.71 1019.71 1019.69 1019.69 1019.65 1019.63 1019.55 1019.55 1019.53 1019.47 1019.43 1019.41 1019.31
1017.43 1017.49 1017.55 1017.63 1017.69 1017.71 1017.75 1017.81 1017.91 1017.99 1018.05 1018.15 1018.27 1018.37 1018.43 1018.47 1018.53 1018.59 1018.65 1018.75 1018.81 1018.87 1018.97 1019.03 1019.11 1019.15 1019.21 1019.27 1019.33 1019.43 1019.49 1019.55 1019.59 1019.63 1019.65 1019.65 1019.69 1019.69 1019.71 1019.77 1019.81 1019.77 1019.71 1019.69 1019.63 1019.59 1019.53 1019.53 1019.49 1019.43 1019.47 1019.59 1019.63 1019.65 1019.69 1019.71 1019.71 1019.71 1019.71 1019.69 1019.65 1019.63 1019.59 1019.53 1019.53 1019.49 1019.47 1019.41 1019.33
1017.47 1017.49 1017.55 1017.59 1017.65 1017.69 1017.75 1017.77 1017.83 1017.91 1017.97 1018.05 1018.19 1018.27 1018.33 1018.41 1018.49 1018.55 1018.65 1018.75 1018.81 1018.87 1018.91 1018.99 1019.05 1019.11 1019.19 1019.21 1019.31 1019.41 1019.47 1019.55 1019.63 1019.65 1019.69 1019.71 1019.71 1019.71 1019.75 1019.77 1019.81 1019.81 1019.75 1019.71 1019.69 1019.63 1019.59 1019.53 1019.49 1019.43 1019.41 1019.55 1019.63 1019.65 1019.69 1019.69 1019.71 1019.71 1019.71 1019.65 1019.65 1019.65 1019.63 1019.55 1019.49 1019.49 1019.47 1019.41 1019.41
Wind_Speed
3 4 4 4 4 4 4 3 3 4 4 4 4 4 4 4 4 4 4 4 4 4 4 4 4 4 4 5 7 7 7 7 7 7 7 7 6 6 6 5 5 5 4 4 4 3 3 3 2 1 1 0 1 2 2 2 2 3 3 3 3 3 4 6 7 8 8 8 7
3 3 3 4 4 4 4 3 4 4 4 4 4 5 5 5 5 4 4 4 4 4 4 3 3 4 5 6 7 7 7 7 7 7 7 7 6 6 5 5 5 5 5 4 4 3 3 2 2 1 1 1 1 1 1 2 2 3 3 4 3 3 4 5 5 6 6 6 5
4 3 3 2 3 3 3 3 4 4 5 4 4 5 5 5 5 4 4 4 4 4 4 3 3 4 5 6 6 6 7 7 7 7 7 6 6 5 5 5 5 5 4 4 3 3 2 2 1 1 0 0 1 1 1 2 2 2 2 3 2 2 2 3 4 3 3 3 4
4 3 2 2 3 3 3 3 4 5 5 5 5 5 4 4 4 4 4 4 4 4 4 4 3 4 4 5 5 6 6 7 7 7 6 5 5 5 5 5 5 5 4 4 3 3 3 2 2 1 1 1 1 1 1 2 2 1 1 2 1 2 2 3 3 2 2 3 3
6 5 3 2 3 3 3 3 4 4 5 5 5 5 4 4 4 3 3 4 3 3 3 4 3 3 4 5 6 6 6 7 7 6 5 5 5 5 5 5 5 5 4 4 4 3 3 2 2 2 2 2 2 1 1 1 1 0 1 1 1 2 2 2 2 2 2 2 2
7 6 5 3 3 3 3 3 3 4 5 5 6 6 5 4 3 3 3 3 3 3 3 3 3 4 5 6 6 6 6 5 5 5 5 4 4 5 5 5 5 5 4 4 4 4 3 3 2 2 2 2 1 1 1 1 1 1 1 2 2 2 2 2 2 2 2 2 3
4 5 5 4 5 6 5 4 4 4 5 6 7 7 6 5 4 4 4 3 3 3 3 3 4 5 5 6 6 5 5 5 4 4 4 4 4 5 5 5 5 5 4 4 4 3 3 3 2 2 2 1 1 1 2 2 1 1 2 3 2 2 1 2 2 2 2 3 4
3 4 5 6 7 7 7 5 4 4 5 5 6 7 7 6 6 5 5 4 3 3 3 3 4 5 6 6 6 5 5 5 4 4 4 4 5 5 5 5 5 5 4 4 4 3 3 2 2 2 2 1 1 2 2 2 1 2 3 3 2 2 1 2 2 2 3 4 4
4 5 6 8 8 7 6 4 4 4 5 5 6 7 7 7 7 6 5 4 4 3 4 4 5 6 7 7 6 6 5 5 5 4 4 5 5 5 5 5 5 4 3 3 3 3 2 2 2 2 2 2 2 1 1 0 2 3 3 3 3 3 2 2 2 3 4 4 5
4 6 7 8 8 7 5 4 4 5 6 7 7 7 7 7 7 6 5 4 4 4 4 4 5 6 7 7 6 6 5 5 5 5 5 5 5 5 5 4 4 3 3 3 3 2 2 2 2 2 2 1 1 1 1 1 2 4 4 4 4 5 5 4 4 4 5 5 6
6 6 7 8 8 7 5 4 5 6 7 7 7 7 7 7 7 6 6 5 6 6 5 4 5 6 7 6 6 6 5 5 5 5 5 5 5 5 4 4 4 3 3 3 3 2 2 2 2 1 1 1 1 2 2 3 3 4 5 4 5 6 7 6 5 5 5 6 7
8 8 8 8 7 6 5 4 5 6 7 7 7 7 7 7 7 7 7 7 7 6 5 4 5 6 7 6 5 5 5 5 5 5 5 5 4 4 4 4 4 3 3 3 2 2 2 2 2 2 3 3 2 2 3 3 4 4 5 6 6 6 7 7 6 5 5 5 7
9 9 8 6 5 5 4 4 4 5 6 7 7 7 6 6 6 7 7 8 8 6 5 5 6 6 6 6 5 4 4 4 4 5 5 4 4 4 4 4 3 3 3 3 2 2 2 2 2 3 3 4 3 3 3 3 4 5 5 6 6 6 6 6 6 5 5 6 6
9 8 7 5 4 4 4 4 4 5 6 7 7 6 6 5 5 6 7 7 7 7 6 6 6 5 5 5 4 4 4 4 4 5 5 5 4 4 4 3 3 3 3 2 2 2 2 2 2 2 3 4 4 4 4 4 4 5 6 6 6 7 7 6 6 6 6 6 7
8 7 6 5 5 5 6 6 5 5 6 7 6 6 5 4 4 5 6 7 7 7 7 6 5 5 4 4 4 4 4 4 5 5 5 5 4 4 4 3 3 2 2 2 2 2 1 1 1 2 3 4 5 5 5 5 5 5 6 6 7 7 7 7 6 6 6 7 7
7 7 7 7 7 8 7 6 5 5 6 6 5 5 4 3 3 4 6 6 6 6 6 6 5 4 4 4 4 4 4 4 5 5 5 4 4 4 3 3 2 1 1 1 1 0 1 1 2 2 3 3 4 5 5 5 6 6 6 6 6 6 7 7 6 6 6 7 7
8 8 8 9 9 9 8 6 5 5 6 6 5 5 4 4 3 4 5 6 5 6 6 6 5 4 4 4 4 4 4 4 4 4 4 4 3 3 2 2 1 0 0 0 1 1 1 2 2 2 3 3 4 5 5 5 5 6 6 6 6 6 6 6 6 6 6 7 7
8 8 9 9 9 8 7 6 6 6 7 7 6 5 5 5 4 4 4 5 5 6 6 6 4 4 4 4 4 3 3 4 4 4 4 3 3 2 2 1 1 1 1 1 1 2 2 2 3 3 3 3 4 4 5 5 5 5 5 5 5 5 5 5 5 5 5 6 7
9 9 8 8 7 7 7 7 6 7 7 7 6 6 5 5 5 5 4 4 5 6 6 6 5 5 5 5 4 4 4 4 4 4 3 3 2 2 1 1 1 2 2 2 2 2 3 3 3 3 3 3 4 4 4 4 4 4 4 4 4 4 4 4 4 4 4 5 5
9 8 7 7 7 6 6 6 6 6 6 6 6 6 6 5 5 5 5 5 5 6 6 6 6 5 5 5 5 5 4 3 4 3 3 2 2 1 1 1 1 1 2 2 2 2 3 3 3 3 3 3 3 4 4 4 4 4 4 3 3 3 3 3 3 3 3 4 4
6 6 6 6 6 6 6 5 5 6 6 6 6 6 6 5 5 6 5 5 5 6 7 7 6 6 5 5 5 4 4 3 3 3 2 2 1 1 1 1 1 1 2 2 2 2 2 2 2 2 2 2 3 3 3 4 4 4 3 3 3 3 3 2 3 3 3 3 4
5 5 5 6 6 6 6 5 6 6 6 6 6 6 6 6 6 6 5 5 5 6 6 6 6 5 5 4 4 4 3 2 2 2 2 1 1 1 1 1 2 2 2 2 2 2 2 2 2 2 2 2 2 3 3 3 4 4 4 4 3 3 3 2 2 3 3 3 4
5 5 5 6 6 7 7 6 6 6 6 6 6 6 6 6 6 6 6 5 6 6 6 5 5 4 4 4 4 4 3 2 2 1 1 2 2 2 2 2 2 2 2 2 2 2 2 2 2 2 2 2 2 2 3 3 3 4 4 4 4 4 3 3 3 3 3 3 3
5 5 5 5 6 6 7 6 6 7 6 6 6 6 6 6 6 6 6 6 6 5 5 4 3 3 4 4 4 4 4 3 2 1 1 2 2 2 2 2 2 2 2 2 2 2 2 2 2 2 2 2 2 2 2 2 3 3 4 4 4 4 4 3 3 3 3 3 3
6 6 6 6 6 6 6 7 7 7 6 6 6 6 6 6 6 5 5 4 4 4 4 3 3 3 3 3 3 3 3 3 3 2 2 1 1 1 1 1 1 2 2 2 3 4 5 5 4 3 2 2 1 1 1 2 2 2 3 3 4 4 4 4 3 3 3 3 3
6 6 6 6 6 6 6 7 7 7 6 6 6 6 6 5 5 5 4 4 3 3 3 3 2 2 2 2 2 2 2 2 3 2 2 1 1 1 1 1 1 1 1 2 4 6 6 7 7 5 3 2 2 1 1 2 2 2 2 3 3 3 4 4 4 3 3 3 3
6 6 6 6 6 6 6 6 6 6 6 5 6 5 5 4 4 4 4 3 2 2 2 2 2 2 2 2 2 2 1 1 2 2 2 1 0 1 1 2 2 2 2 4 6 7 7 7 8 7 3 3 2 2 1 1 2 2 2 2 2 3 3 3 4 4 4 4 4
5 5 6 6 6 6 6 6 6 6 6 5 5 4 4 4 5 5 4 3 2 2 1 1 1 1 2 2 2 2 2 1 1 1 1 1 0 1 2 2 2 2 4 6 7 8 8 8 8 7 4 2 2 2 1 1 1 2 2 2 2 2 2 3 3 3 4 4 4
6 6 6 6 6 6 6 6 6 6 5 5 4 4 4 4 4 4 4 3 3 2 2 1 1 1 1 1 1 1 1 1 1 1 1 1 1 2 2 2 2 3 5 7 8 8 8 7 7 7 6 2 1 2 1 1 1 2 2 2 2 2 2 2 2 3 3 3 4
6 6 6 6 6 6 5 5 5 5 5 4 4 4 4 4 4 3 3 3 3 2 2 1 2 2 2 1 2 2 1 1 1 1 1 1 1 2 2 2 2 3 5 7 8 8 8 7 7 7 6 4 2 2 0 0 1 2 2 2 2 2 2 2 2 3 3 3 3
5 6 6 6 6 5 5 4 5 5 5 4 4 5 4 4 3 3 3 3 2 2 1 2 2 2 2 1 1 1 1 1 0 0 0 1 2 2 3 3 3 3 5 6 7 7 8 7 6 6 5 4 3 2 0 0 1 2 2 3 3 3 2 2 2 2 2 3 3
5 5 6 6 5 5 4 4 4 4 5 5 4 4 4 4 3 3 3 2 2 2 2 2 2 2 1 1 1 0 1 1 1 1 1 1 2 2 2 2 3 3 4 6 7 7 7 7 6 5 4 4 3 2 1 0 1 2 2 2 3 2 2 2 2 2 2 2 2
4 5 5 5 5 4 4 4 4 4 5 5 4 4 4 3 3 2 2 2 2 2 2 2 2 2 2 1 1 1 2 1 1 1 1 1 2 1 2 2 2 3 4 6 7 7 7 6 5 4 4 4 3 2 0 0 1 1 1 2 2 2 1 1 1 1 1 2 2
4 4 4 4 4 4 4 4 4 4 4 4 4 3 3 3 3 2 2 2 2 2 2 3 3 2 2 2 2 2 2 1 1 1 1 1 1 1 2 2 2 3 4 6 6 7 6 5 4 4 4 4 3 2 1 1 1 1 1 2 1 1 1 1 1 1 1 1 1
4 4 4 4 4 4 4 4 4 4 4 4 3 3 3 3 3 2 2 2 2 2 1 1 2 1 1 1 1 1 1 1 1 1 1 1 1 1 2 2 3 4 5 6 6 6 5 4 3 3 3 3 2 1 1 1 1 1 2 2 1 1 1 1 1 1 1 1 0
3 4 4 4 4 4 4 4 4 4 4 3 3 3 3 2 2 2 2 2 2 1 1 1 1 1 1 1 1 1 1 1 2 2 2 1 1 2 2 3 3 4 5 6 5 5 4 3 3 2 2 2 1 1 1 1 1 1 2 2 2 2 2 2 1 1 0 1 1
2 3 4 4 4 4 4 4 4 4 3 3 3 3 3 2 2 2 2 2 2 1 1 1 1 1 1 1 1 1 1 1 2 2 2 2 2 2 2 3 3 4 5 5 5 4 3 3 3 2 1 1 1 0 1 1 1 1 2 2 2 2 2 2 2 1 1 1 1
1 2 3 4 4 4 4 4 4 4 3 3 3 3 3 2 2 2 2 2 2 2 1 1 1 1 1 1 1 1 1 1 1 1 1 2 2 2 2 2 3 4 4 5 5 5 4 3 4 4 2 1 1 0 0 0 1 1 1 2 2 2 2 2 2 1 1 1 2
1 2 2 3 3 4 4 4 4 4 3 3 2 2 2 2 2 2 2 2 2 2 2 2 2 2 2 2 1 1 0 1 1 0 0 1 1 1 1 2 3 4 4 5 6 6 5 5 6 6 4 1 1 1 0 0 0 1 1 1 2 2 2 2 2 2 2 2 2
1 1 2 3 3 3 4 4 4 4 3 3 3 2 2 2 2 2 2 2 2 2 2 2 3 3 3 3 2 2 1 0 1 1 1 1 2 2 2 2 3 4 4 5 6 6 7 6 7 8 6 1 1 1 1 1 0 1 1 1 1 2 2 2 2 2 2 2 3
1 1 2 3 3 3 4 4 4 4 4 3 3 3 3 3 2 2 2 2 2 2 2 2 3 3 3 3 2 2 2 1 0 1 2 2 2 2 2 2 3 3 4 5 6 7 7 7 8 9 7 2 1 2 1 1 1 1 2 2 1 1 2 2 2 2 2 2 2
Wind_Direction
161 162 160 157 153 148 142 135 128 126 127 129 128 127 126 124 122 121 120 118 119 118 116 112 113 110 104 96 94 93 92 89 87 84 81 77 74 70 68 66 63 59 54 49 46 43 41 40 38 28 4 300 272 266 265 261 268 274 279 280 281 279 276 271 267 265 265 266 266
167 162 156 151 144 139 134 128 124 122 122 124 127 130 130 128 127 127 126 123 124 124 123 121 121 114 107 101 98 96 95 92 90 86 82 78 75 71 68 65 62 58 54 48 44 43 44 46 45 35 359 324 301 299 305 325 314 298 288 281 278 274 269 262 258 257 257 257 256
162 158 160 157 141 135 133 130 127 124 122 122 125 127 128 128 129 131 133 133 132 129 128 129 127 119 111 106 101 99 98 97 95 92 89 86 83 80 77 73 67 64 61 57 54 53 56 61 69 71 59 30 6 353 357 12 10 334 293 279 280 275 266 262 265 268 271 268 266
183 182 174 151 142 131 123 116 120 124 125 124 121 119 119 123 127 131 134 134 131 130 132 135 131 124 115 109 104 101 99 100 99 99 98 97 96 93 90 86 79 74 71 69 67 66 68 73 83 92 90 82 73 60 43 37 33 3 293 277 276 263 255 256 262 268 273 274 275
206 208 198 171 150 121 98 92 118 129 130 125 120 116 115 117 121 124 126 126 127 130 132 133 128 120 110 102 100 98 97 97 99 101 103 103 101 97 93 88 86 83 80 76 75 75 76 77 77 75 76 79 84 85 75 54 41 339 287 281 272 263 261 268 270 272 272 273 274
200 201 197 181 159 128 105 114 143 143 135 125 121 120 119 119 117 113 110 109 107 106 105 106 106 102 96 90 88 87 87 88 90 94 97 98 94 89 86 85 86 85 83 80 79 81 82 82 76 71 71 82 101 111 95 63 27 329 298 285 276 276 282 287 291 294 291 282 280
167 163 155 139 125 121 126 151 157 145 131 123 123 124 124 121 112 103 97 92 85 77 74 78 83 88 91 90 88 86 86 86 86 88 89 91 86 83 81 81 81 80 79 80 78 77 79 86 91 96 98 107 106 85 67 50 26 337 298 281 275 278 287 291 298 298 290 280 277
122 119 112 102 102 110 123 148 149 137 125 121 123 123 122 117 109 101 92 80 73 69 67 70 78 85 91 94 94 92 89 88 84 81 81 87 85 83 80 78 76 74 74 79 83 88 91 97 102 101 91 68 59 55 52 43 360 303 287 283 277 265 255 263 271 272 269 266 269
111 102 96 94 95 103 115 134 129 121 114 111 112 113 112 109 104 98 91 83 78 73 70 71 76 80 85 89 91 90 86 83 81 78 77 82 85 84 81 77 73 67 61 60 74 82 86 83 79 71 59 43 27 18 4 327 306 301 298 296 297 289 272 253 257 260 261 261 266
111 103 99 99 100 105 112 119 111 107 105 103 102 102 102 101 98 96 96 96 87 79 75 78 84 85 84 84 86 87 87 87 87 85 81 79 82 82 81 77 71 63 51 41 44 48 55 60 53 48 42 32 342 311 302 308 318 316 312 310 312 308 302 291 284 278 275 274 276
103 101 101 102 106 112 120 124 112 106 103 102 101 100 99 99 100 102 103 101 92 85 82 85 92 92 89 83 83 85 89 91 92 89 84 77 76 75 74 72 68 60 49 39 34 35 41 50 34 11 348 346 320 313 317 325 324 317 312 308 308 306 303 300 297 291 286 283 283
97 96 97 101 113 126 136 133 117 108 103 102 101 100 100 103 108 109 107 100 96 93 87 82 89 91 91 88 88 90 93 95 95 93 88 81 76 72 69 66 60 53 45 38 38 38 39 41 21 355 339 333 331 328 327 326 319 309 303 299 298 296 294 293 293 293 291 290 287
96 98 101 111 130 141 139 119 107 102 101 100 99 98 100 106 112 112 109 105 104 101 94 80 82 88 93 99 102 103 103 100 96 93 88 84 78 74 69 64 56 46 38 34 38 38 37 34 15 353 335 327 324 320 316 309 300 293 290 289 288 287 286 288 291 293 294 294 291
100 105 113 125 132 124 104 87 87 91 93 93 93 94 99 107 112 113 112 111 110 106 98 84 78 81 91 104 108 107 103 98 93 89 85 80 75 71 68 61 52 42 34 29 33 34 30 18 358 335 320 315 310 304 295 285 279 277 278 281 283 284 286 289 293 295 296 296 295
108 112 114 114 103 90 81 75 76 81 85 87 89 93 100 108 110 111 111 111 110 105 99 91 85 81 82 91 97 97 94 89 87 86 83 78 72 68 65 59 50 40 31 24 27 31 25 330 302 298 299 300 297 293 288 282 277 276 277 280 283 286 289 292 295 296 298 299 299
119 116 111 102 93 88 86 84 83 86 89 92 94 96 98 99 99 101 104 105 103 100 97 97 97 91 82 78 83 86 86 83 83 84 84 81 77 73 68 64 55 44 33 25 13 326 235 235 253 268 277 282 284 285 284 284 282 281 281 282 284 287 290 293 295 296 297 298 297
120 113 106 99 98 99 102 105 107 108 108 109 107 105 101 97 91 92 95 99 99 97 95 95 98 95 88 78 73 76 80 79 78 80 84 88 89 88 86 86 87 99 210 229 249 249 249 248 251 254 258 265 271 274 277 279 280 281 281 283 285 287 290 293 295 295 295 294 292
108 103 100 101 107 113 119 124 126 125 123 121 118 114 108 103 97 91 88 90 97 100 100 94 89 87 84 78 66 64 70 77 77 79 83 92 99 105 112 130 165 194 209 212 226 238 247 254 254 252 250 253 261 266 271 274 276 277 279 282 284 285 287 288 290 291 291 291 291
101 102 106 114 121 127 131 132 130 127 125 123 120 115 109 104 102 96 87 79 88 97 101 96 84 75 71 70 63 58 60 71 79 83 85 92 102 115 133 163 187 199 206 211 219 226 235 244 249 252 253 255 262 267 271 273 275 277 279 282 283 285 286 287 289 289 290 289 291
110 116 124 132 133 134 134 131 127 122 119 115 111 107 102 98 96 94 90 82 81 87 91 91 83 75 68 67 65 60 57 62 78 85 91 93 101 117 143 173 192 203 210 213 220 226 234 242 249 254 258 263 271 276 279 280 283 285 286 287 288 289 290 292 293 293 291 289 290
121 127 133 135 133 130 128 124 119 114 109 104 101 98 94 88 85 85 86 85 80 80 83 85 86 84 80 76 75 71 65 60 75 87 97 101 113 131 159 175 203 215 220 219 222 228 235 243 249 256 262 270 279 285 290 294 297 297 297 297 295 294 293 294 296 295 294 291 290
120 123 125 126 124 122 119 115 109 104 100 95 92 89 85 80 78 78 78 78 78 79 82 86 91 94 96 97 97 95 88 73 77 92 112 134 161 178 184 183 199 213 223 228 232 239 250 258 258 260 266 276 287 295 303 308 308 308 306 304 302 300 299 298 299 300 298 296 292
113 114 116 117 116 115 113 109 103 97 93 89 85 82 79 77 76 75 74 74 78 82 86 90 96 103 109 115 118 118 116 105 99 113 148 173 189 195 194 189 196 204 213 224 227 244 265 276 273 269 267 274 289 301 309 313 312 310 307 306 305 305 304 302 303 304 305 303 298
110 111 112 112 110 109 108 104 98 94 90 87 85 82 80 78 76 74 74 75 80 85 91 95 103 111 119 127 132 136 137 137 146 164 190 199 199 198 197 195 199 205 213 219 236 269 286 284 272 265 262 265 280 295 305 308 307 305 305 304 304 304 303 302 303 305 306 307 304
108 108 108 108 107 106 103 101 98 95 93 90 87 85 82 79 77 76 75 75 80 87 94 101 108 115 121 129 138 144 148 152 160 172 191 215 212 205 202 206 215 220 227 241 287 302 305 301 288 269 249 243 255 272 285 291 292 294 297 298 301 303 303 303 303 306 307 309 310
106 106 106 108 106 104 101 101 100 99 97 94 90 88 86 84 82 80 80 81 81 84 92 102 109 115 120 125 131 141 151 161 163 167 175 200 232 264 279 275 274 270 275 291 308 310 310 307 301 290 261 204 209 232 258 272 275 282 289 295 299 303 304 305 307 310 312 314 316
107 107 108 107 104 104 104 104 103 102 102 100 99 100 101 102 98 95 93 95 93 91 92 100 113 123 128 129 134 144 159 169 162 158 157 160 220 316 317 313 311 307 308 312 315 313 310 309 308 306 291 180 181 196 227 258 271 281 288 294 297 299 301 302 306 311 316 320 321
113 113 111 107 105 106 107 106 106 108 111 113 115 117 119 119 117 116 116 117 117 114 114 123 136 135 130 130 142 151 159 155 140 129 118 97 32 331 316 311 311 310 311 315 316 314 312 313 319 323 325 173 166 175 201 242 272 284 289 290 291 292 295 297 303 309 315 319 320
120 118 116 113 113 113 114 115 118 122 126 127 126 123 119 117 121 126 131 137 142 152 161 168 154 128 106 100 109 113 114 111 114 102 85 54 6 331 314 308 307 306 308 312 313 314 315 321 332 336 337 351 136 153 181 236 273 284 287 283 281 282 284 289 297 305 310 314 315
123 123 123 122 122 123 126 130 134 136 136 133 129 123 118 114 118 127 138 151 165 176 179 155 128 112 97 81 63 48 34 25 80 90 80 37 324 301 293 290 289 291 297 304 309 313 318 328 338 339 340 359 73 114 131 264 282 284 283 279 273 270 271 279 289 299 306 312 314
126 127 128 128 128 131 135 138 139 138 137 133 131 130 129 128 134 143 153 162 173 170 137 99 102 107 109 100 79 52 355 304 299 134 146 232 266 269 267 269 267 274 286 299 307 313 320 329 338 339 342 9 64 88 83 291 281 278 277 274 268 263 262 266 279 291 302 311 316
128 129 129 130 133 136 137 137 137 136 133 132 136 139 142 144 146 149 152 155 149 131 110 99 108 120 134 132 129 175 226 239 235 226 226 233 246 254 259 265 264 272 285 300 309 315 322 332 338 339 343 16 63 82 90 264 268 268 270 269 263 257 253 254 263 277 290 304 312
126 128 130 134 137 138 137 135 133 131 131 134 142 147 148 145 140 138 140 144 142 142 144 151 162 174 185 184 190 206 216 218 220 229 236 237 237 247 262 276 272 279 291 304 312 318 325 337 344 347 357 25 53 65 53 293 279 275 274 270 263 254 242 234 240 254 272 290 306
128 130 133 138 140 140 138 135 129 127 129 137 145 148 145 140 139 143 151 156 152 152 157 165 174 181 185 182 185 198 211 216 215 221 227 227 222 239 260 276 277 287 297 306 313 320 329 343 350 0 15 36 48 48 18 350 329 313 302 290 284 276 255 228 225 232 248 274 297
137 138 139 142 143 142 139 133 128 128 133 143 148 147 143 140 147 155 161 155 135 125 125 139 148 154 159 163 173 189 209 223 222 223 222 215 216 237 255 265 274 288 299 307 314 322 331 344 352 9 28 49 53 45 18 360 342 330 321 316 313 314 312 300 264 236 228 234 255
149 147 145 143 143 142 139 134 132 135 143 153 155 153 150 147 151 151 145 127 107 95 87 93 103 112 128 150 169 191 210 216 217 221 222 216 217 231 247 262 277 293 304 308 312 319 327 337 342 3 34 65 67 47 23 7 348 338 334 331 325 322 321 320 311 288 237 200 200
159 153 147 144 145 145 143 138 138 145 156 167 167 163 158 154 151 143 132 122 116 115 118 114 113 126 147 161 176 188 197 193 197 208 217 220 219 228 244 262 281 296 305 308 307 308 313 319 318 331 10 88 90 61 27 11 355 347 341 335 325 320 319 316 312 304 279 224 205
166 158 153 151 154 152 148 143 147 157 170 181 177 167 158 152 150 147 143 141 146 156 165 162 160 163 164 164 166 169 162 145 163 191 210 223 224 229 244 266 282 292 300 303 300 297 295 296 299 307 316 140 137 124 46 5 352 345 338 330 319 315 314 313 315 314 299 270 235
168 169 165 164 164 160 156 153 158 168 180 188 182 169 157 152 156 158 158 156 162 168 173 175 176 175 170 165 165 159 124 44 37 35 270 258 266 259 259 265 278 286 294 299 297 294 291 291 296 303 308 197 160 155 161 164 321 321 322 321 315 314 315 317 323 324 318 302 267
179 187 185 182 176 170 167 166 170 176 183 188 185 178 169 165 166 163 160 158 164 170 174 177 179 177 174 174 173 172 163 53 25 16 2 334 317 304 286 268 273 282 290 296 295 292 290 291 295 302 307 266 162 159 166 173 262 288 296 303 313 317 318 320 326 330 329 321 298
266 223 208 199 188 183 180 181 183 185 185 186 187 182 175 166 163 159 157 161 170 175 177 179 179 177 176 177 177 179 183 203 341 2 1 348 333 321 307 285 278 281 286 291 290 288 287 290 295 301 304 282 179 161 164 167 239 268 277 282 294 310 316 318 324 329 331 329 321